Val-d'Or Airport
CYVO : now visible

Airfield :











YOU CAN JOIN US ON...

 
LOGIN :

Register | Disclaimer

   EN    FR    IT 

 









Legend :    VFR   Marginal VFR   IFR   Intensive IFR   Very Intensive IFR
Visi :
Ceiling :
>= 8 km
>= 3000ft
5 to 8 km
1000 to 3000 ft
1500m to 5 km
500 to 1000 ft
800 to 1500m
200 to 500 ft
< 800m
< 200 ft
Symbols :   Thunderstorms  Fog  Heavy snow  Heavy precipitations  Wind > 20 kt






- Airport Elevation : 1107 ft
- IATA code : YVO


CYVO - Val-d'Or

CURRENT METAR :
  • 231700Z 22011G23KT 180V260 15SM BKN055 17/05 A3000 RMK CU6 SLP170 DENSITY ALT 1500FT

EXPIRED METARs :
  • 231600Z CCA 22010G18KT 180V250 15SM BKN050 16/05 A3000 RMK CU6 SLP171 DENSITY ALT 1500FT
  • 231500Z 24005KT 180V280 15SM BKN042 15/07 A3000 RMK CU6 SLP170 DENSITY ALT 1400FT

TAF TAF CYVO
Valid from the 23 at 12:00 until the 24 at 00:00 UTC


231138Z 2312/2324 22005KT P6SM BKN070
FM231800 20012G22KT P6SM BKN050 RMK NXT FCST BY 231800Z
CZUL FIR / North America



MET'MAP, your aeronautical weather chart ! - Copyright ORBIFLY December 2007 - Disclaimer

ORBIFLY MET'MAP TEAM :

Programming & Development : Alexandra Zaïnal
Concept & original design : Baudouin d'Aumeries
Assistance for programming : Marc-Olivier Méhu
Technical & hardware support : Manuel Goepfert

Contact : metmap@orbifly.com




SOURCES & CREDITS :

   NOAA       Earth
Advisory